Regional Weather Roundup
Issued by NWS

Home | Current Version | Previous Version | Graphics & Text | Print | Product List | Glossary On
Versions: 1 2 3 4 5 6 7 8 9 10 11 12 13 14 15 16 17 18 19 20 21 22 23 24 25 26 27 28 29 30 31 32 33 34 35 36 37 38 39 40 41 42 43 44 45 46 47 48 49 50
309
ASUS45 KSLC 250210
RWRUT

UTAH REGIONAL WEATHER ROUNDUP
NATIONAL WEATHER SERVICE SALT LAKE CITY UT
800 PM MDT TUE MAY 24 2016

UTZ001>011-023>025-250300-

NORTHERN UTAH

CITY           SKY/WX    TMP DP  RH WIND       PRES   REMARKS
BRIGHAM CITY     N/A     61  36  40 W6        29.89S
HILL AFB       CLEAR     58  38  48 E5        29.90S
LOGAN          CLOUDY    54  41  61 N16       29.91R
OGDEN          MOCLDY    59  36  42 E3        29.89S
PROVO AIRPORT  NOT AVBL
SALT LAKE CITY MOCLDY    62  36  37 CALM      29.89R
VERNAL         CLOUDY    62  27  26 W9        29.87R
WENDOVER       MOCLDY    57  34  41 NW13      29.89R
HEBER CITY     CLOUDY    50  36  57 NW5       29.93R
WEST JORDAN    CLEAR     57  39  51 NE3       29.91R

$$

UTZ012>022-026-027-250300-

SOUTHERN/CENTRAL UTAH

CITY           SKY/WX    TMP DP  RH WIND       PRES   REMARKS
BLANDING       PTCLDY    67  17  14 SW18G28   29.98S
BRYCE CANYON   PTCLDY    48  25  40 W8        30.04R
CEDAR CITY     PTCLDY    59  23  25 SW18G30   29.94R
DELTA          CLOUDY    55  37  50 SE14G22   29.92S
HANKSVILLE     PTCLDY    72  23  16 SW7       29.86R
MILFORD        PTCLDY    64  20  18 SW22G30   29.89R
MOAB/CYNLANDS  MOCLDY    72  20  14 W15       29.81R
PRICE          LGT RAIN  55  31  39 E9G29     29.93R
ST GEORGE      CLOUDY    73  27  17 SW17      29.87R

$$

REGIONAL REPORTS     COLORADO/ARIZONA

CITY           SKY/WX    TMP DP  RH WIND       PRES   REMARKS
CRAIG, CO      CLOUDY    59  29  31 W13       29.91R
GRAND JUNCTION CLEAR     68  21  16 SW10      29.85R
RIFLE          CLEAR     68  14  12 SW8       29.86R
MONTROSE       CLEAR     68  14  12 SW18G26   29.91R
CORTEZ         CLEAR     67  15  13 SW16G25   29.95R
PAGE, AZ       CLEAR     73  11   9 SW15G25   29.86R
GRAND CANYON   CLEAR     59  13  16 SW17G26   30.04R
KINGMAN        PTCLDY    71  28  20 S20       29.93R
FLAGSTAFF      CLEAR     54  25  32 SW14G25   30.08R

$$

REGIONAL REPORTS    NEVADA/IDAHO/WYOMING

CITY           SKY/WX    TMP DP  RH WIND       PRES   REMARKS
LAS VEGAS, NV  PTCLDY    76  27  16 SW12      29.79R
ELY            CLOUDY    48  38  68 S6        29.97R
ELKO           MOCLDY    52  40  63 SW5       29.95S
POCATELLO, ID  TSTM      54  41  61 S23G33    29.88R
BURLEY         MOCLDY    60  39  45 VRB3      29.83R
EVANSTON, WY   CLOUDY    41  35  79 SW23G31   30.00F
ROCK SPRINGS   CLOUDY    50  33  52 W21G29    29.96R
KEMMERER         N/A     45  34  65 S3        30.01R

$$




USA.gov is the U.S. government's official web portal to all federal, state and local government web resources and services.